Simultaneous Nadir Overpasses (SNOs) Predictions

Prediction of SNOs between METOP-B and NOAA-19 Satellite Orbit:

Table of predicted SNOs for the next 14.0 days since TLE Epoch: 2/11/2023
Index Date (METOP-B) Time (METOP-B) Lat,Lon (METOP-B) SZA (METOP-B ) Date (NOAA-19) Time (NOAA-19) Lat,Lon (NOAA-19) SZA (NOAA-19 ) Distance(km) Time Diff (sec)
1 02/18/2023 12:49:49 -80.93,-157.38 86.19 02/18/2023 12:48:34 -80.93,-157.44 86.23 1.36 75
2 02/18/2023 13:40:30 80.92, 9.70 93.77 02/18/2023 13:39:38 80.93, 9.76 93.76 1.20 52
3 02/18/2023 14:31:11 -80.93, 177.14 86.23 02/18/2023 14:30:33 -80.93, 177.21 86.24 1.30 38
4 02/18/2023 15:21:51 80.93, -15.42 93.77 02/18/2023 15:21:37 80.93, -15.58 93.75 2.84 14
5 02/18/2023 16:12:32 -80.94, 152.01 86.23 02/18/2023 16:12:32 -80.93, 151.86 86.25 2.85 0
6 02/18/2023 17:03:13 80.93, -40.90 93.73 02/18/2023 17:03:36 80.93, -40.92 93.74 0.32 23
7 02/18/2023 17:53:54 -80.93, 126.53 86.27 02/18/2023 17:54:31 -80.93, 126.52 86.26 0.44 37
8 02/18/2023 18:44:35 80.92, -66.39 93.69 02/18/2023 18:45:35 80.93, -66.26 93.73 2.40 60



Historial Predications of SNOs between METOP-B and NOAA-19
